Date,TemperatureHighF,TemperatureAvgF,TemperatureLowF,DewpointHighF,DewpointAvgF,DewpointLowF,HumidityHigh,HumidityAvg,HumidityLow,PressureMaxIn,PressureMinIn,WindSpeedMaxMPH,WindSpeedAvgMPH,GustSpeedMaxMPH,PrecipitationSumIn
2013-1-1,65,54,46,54,48,41,95,81,66,30.16,29.91,8,0,8,0.04
2013-1-2,63,54,51,53,51,47,96,88,64,30.12,29.88,7,0,7,0.05
2013-1-3,52,47,43,47,43,40,91,84,72,30.26,30.06,10,0,10,0.01
2013-1-4,56,42,32,41,35,27,96,77,47,30.36,30.24,11,0,11,0.00
2013-1-5,54,41,26,37,28,23,88,61,35,30.41,30.26,9,0,9,0.00
2013-1-6,52,47,41,45,40,33,91,78,57,30.27,30.09,13,1,13,0.03
2013-1-7,56,42,33,37,33,30,94,73,43,30.39,30.21,15,1,15,0.01
2013-1-8,54,44,32,45,38,30,92,81,68,30.41,30.31,9,0,9,0.00
2013-1-9,69,54,42,56,48,40,95,81,62,30.43,30.33,6,0,6,0.00
2013-1-10,74,60,48,59,54,46,97,81,51,30.42,30.27,15,2,15,0.02
2013-1-11,75,65,60,65,62,58,97,88,70,30.27,30.11,10,1,11,0.01
2013-1-12,79,67,56,63,60,55,97,79,53,30.17,30.06,11,1,11,0.01
2013-1-13,77,67,60,64,61,57,93,80,62,30.13,30.03,14,1,14,0.00
2013-1-14,78,68,60,64,61,58,93,78,59,30.12,30.03,14,2,14,0.00
2013-1-15,76,68,59,62,60,56,93,76,59,30.10,29.96,11,1,11,0.00
2013-1-16,76,67,62,65,61,58,95,81,67,29.99,29.90,14,2,14,0.08
2013-1-17,68,56,42,65,53,37,96,90,77,30.17,29.72,21,2,21,0.46
2013-1-18,54,42,33,38,32,26,95,70,34,30.49,30.16,13,1,15,0.01
2013-1-19,60,43,28,40,32,25,93,68,35,30.48,30.22,8,0,8,0.00
2013-1-20,66,51,39,40,37,33,88,62,35,30.22,30.05,12,1,12,0.00
2013-1-21,64,50,35,38,33,24,89,56,28,30.10,29.99,16,2,16,0.00
2013-1-22,51,42,34,24,20,18,53,42,28,30.28,30.08,17,2,18,0.00
2013-1-23,55,42,30,36,24,16,66,50,36,30.37,30.16,17,1,17,0.00
2013-1-24,63,52,36,43,32,13,81,51,19,30.41,30.09,22,3,22,0.00
2013-1-25,40,34,28,28,18,10,62,51,37,30.45,30.14,12,1,14,0.00
2013-1-26,60,46,37,38,34,27,85,65,42,30.29,30.10,10,1,10,0.00
2013-1-27,54,44,34,33,30,27,82,59,39,30.50,30.29,14,3,14,0.00
2013-1-28,63,48,41,51,40,30,91,73,55,30.44,30.27,10,1,10,0.00
2013-1-29,77,59,42,62,53,40,94,80,58,30.28,30.02,14,1,14,0.00
2013-1-30,76,66,51,64,60,46,92,81,62,30.03,29.50,29,4,29,0.73
2013-1-31,53,45,37,47,29,22,85,55,31,30.17,29.70,23,4,23,0.00